This is the latest recevied weather packets stored in our database for station/object LU8FCJ-5. If no packets are shown the sender has not sent any weather packets the latest 10 day(s).
| Time | Temp. | Humidity | Pressure | Rain* | Wind** | Luminosity | Snow |
|---|---|---|---|---|---|---|---|
| 1777655387 | 26.11° C | 53% | 1009 hPa | 0 mm | - | - | - |
| 1777655076 | 26.11° C | 53% | 1009 hPa | 0 mm | - | - | - |
| 1777654766 | 25.56° C | 54% | 1009.2 hPa | 0 mm | - | - | - |
| 1777654456 | 26.67° C | 50% | 1008.9 hPa | 0 mm | - | - | - |
| 1777654145 | 27.22° C | 51% | 1009 hPa | 0 mm | - | - | - |
| 1777653836 | 26.11° C | 52% | 1009.1 hPa | 0 mm | - | - | - |
| 1777653525 | 25° C | 54% | 1009.3 hPa | 0 mm | - | - | - |
| 1777653216 | 25° C | 53% | 1009.3 hPa | 0 mm | - | - | - |
| 1777652595 | 26.67° C | 53% | 1009.4 hPa | 0 mm | - | - | - |
| 1777652287 | 27.22° C | 52% | 1009.4 hPa | 0 mm | - | - | - |
| 1777651975 | 26.67° C | 54% | 1009.4 hPa | 0 mm | - | - | - |
| 1777651664 | 26.11° C | 51% | 1009.5 hPa | 0 mm | - | - | - |
| 1777651355 | 26.67° C | 52% | 1009.5 hPa | 0 mm | - | - | - |
| 1777651045 | 26.11° C | 53% | 1009.6 hPa | 0 mm | - | - | - |
| 1777650734 | 25.56° C | 55% | 1009.7 hPa | 0 mm | - | - | - |
| 1777650424 | 26.11° C | 54% | 1009.7 hPa | 0 mm | - | - | - |
| 1777650114 | 25.56° C | 60% | 1009.8 hPa | 0 mm | - | - | - |
| 1777649806 | 25.56° C | 58% | 1009.7 hPa | 0 mm | - | - | - |
| 1777649493 | 26.11° C | 57% | 1009.8 hPa | 0 mm | - | - | - |
| 1777649184 | 26.11° C | 59% | 1009.7 hPa | 0 mm | - | - | - |
| 1777648874 | 25.56° C | 61% | 1009.7 hPa | 0 mm | - | - | - |
| 1777648253 | 25.56° C | 62% | 1009.8 hPa | 0 mm | - | - | - |
| 1777647943 | 25° C | 62% | 1009.7 hPa | 0 mm | - | - | - |
| 1777647637 | 25° C | 62% | 1010 hPa | 0 mm | - | - | - |
| 1777647323 | 24.44° C | 63% | 1009.6 hPa | 0 mm | - | - | - |
* Rain latest hour (hover to see other rain measurements)
** Current wind speed in m/s (hover to see current wind gust speed)